STARLINK-3121 (49428 NORAD) Tracking and Keplerian Element Data

This shows tracking and keplerian element data for the satellite.

Feedback or suggestion? Click here.




ElementValue
Catalog49428
NameSTARLINK-3121
Epoch Orbit367
Epoch Day15.91668981
Epoch Year2022
RAAN185.355
Inclination53.2173
Eccentricity0.0001457
Argument of Perigee64.6312
Mean Anonmoly136.4702
Mean Motion15.25893994
Decay Rate-0.00651587
L11 49428U 21104W 22015.91668981 -.00651587 00000+0 -27012-1 0 9999
L22 49428 53.2173 185.3550 0001457 64.6312 136.4702 15.25893994 3670

Live tracking and technical data element details for STARLINK-3121 (NORAD 49428). STARLINK-3121 can be tracked NOW for your location showing map with azimuth and elevation plus other details from your city location.

Track the satellite on the map from your city or location and see movement details for azimuth, elevation, latitude, longitude, range, height, and movement on the map or in text.







IsCatalogInMostPopularTable: catalog: 49428, numindb: 7
Update: records affected: 1



GetName: 49428 STARLINK-3121

Hit Count: updated at: Thu, 20 Jan 2022 17:31:44 GMT